CW9931 Weather Reports


time (UTC)temp
C
wind
direction
speed
KPH
gust
KPH
rain 1hr
cm
rain 24hr
cm
rain mn
cm
humidity
%
barometer
mb
20260906105603 20 48 3.2 4.8 0.00 0.18 0.00 92 1011.9
20260906105103 20 62 1.6 14.5 0.00 0.18 0.00 92 1011.8
20260906104603 20 7 0.0 0.0 0.00 0.18 0.00 92 1011.9
20260906104103 20 71 0.0 0.0 0.00 0.18 0.00 92 1011.8
20260906103604 20 112 0.0 3.2 0.00 0.18 0.00 92 1011.6
20260906103103 20 12 0.0 3.2 0.00 0.18 0.00 92 1011.6
20260906102603 20 111 1.6 4.8 0.00 0.18 0.00 92 1011.5
20260906102104 20 35 0.0 4.8 0.00 0.18 0.00 92 1011.5
20260906101103 20 74 3.2 4.8 0.00 0.18 0.00 91 1011.5
20260906100603 20 16 1.6 4.8 0.00 0.18 0.00 91 1011.5
20260906094604 20 54 3.2 9.7 0.00 0.18 0.00 91 1011.5
20260906094103 20 64 3.2 19.3 0.00 0.18 0.00 91 1011.5
20260906093603 21 44 8.0 12.9 0.00 0.18 0.00 91 1011.6
20260906093103 21 31 9.7 14.5 0.00 0.18 0.00 91 1011.5
20260906092603 21 354 3.2 14.5 0.00 0.18 0.00 91 1011.5
20260906091603 21 44 1.6 14.5 0.00 0.18 0.00 92 1011.6
20260906091104 21 21 4.8 12.9 0.00 0.18 0.00 92 1011.5
20260906090604 21 62 16.1 19.3 0.00 0.18 0.00 93 1011.4
20260906090103 21 58 4.8 12.9 0.00 0.18 0.00 93 1011.3
20260906085603 21 230 1.6 9.7 0.00 0.18 0.00 93 1011.2
20260906085104 21 331 0.0 12.9 0.00 0.18 0.00 93 1011.2
20260906084603 21 61 1.6 19.3 0.00 0.18 0.00 94 1011.2
20260906083604 21 33 8.0 12.9 0.00 0.18 0.00 94 1011.2
20260906083103 21 94 3.2 12.9 0.00 0.18 0.00 94 1011.0
20260906082603 21 199 3.2 19.3 0.00 0.18 0.00 94 1010.8
20260906082103 21 48 3.2 9.7 0.00 0.18 0.00 94 1010.8
20260906081603 21 33 11.3 14.5 0.00 0.18 0.00 94 1010.8
20260906080603 21 0 3.2 12.9 0.00 0.18 0.00 94 1010.8
20260906080103 21 81 6.4 19.3 0.00 0.18 0.00 94 1010.8
20260906075603 21 65 4.8 12.9 0.00 0.18 0.00 94 1010.9
20260906075103 21 41 0.0 4.8 0.00 0.18 0.00 94 1010.8
20260906074603 21 42 1.6 4.8 0.00 0.18 0.00 94 1010.8
20260906074103 21 28 1.6 4.8 0.00 0.18 0.00 94 1010.8
20260906072103 21 14 1.6 4.8 0.00 0.18 0.00 94 1010.7
20260906071603 21 4 1.6 3.2 0.00 0.18 0.00 94 1010.7
20260906071104 21 86 1.6 3.2 0.00 0.18 0.00 94 1010.8
20260906070603 21 59 1.6 4.8 0.00 0.18 0.00 94 1010.8
20260906070104 21 37 3.2 4.8 0.00 0.18 0.00 94 1010.9
20260906065604 21 10 1.6 4.8 0.00 0.18 0.00 94 1011.1
20260906064603 21 83 1.6 4.8 0.00 0.18 0.00 94 1011.1
20260906062603 21 59 0.0 3.2 0.00 0.18 0.00 93 1011.1
20260906061604 21 23 0.0 3.2 0.00 0.18 0.00 93 1011.0
20260906061104 21 9 0.0 0.0 0.00 0.18 0.00 93 1010.8
20260906060603 21 316 0.0 3.2 0.00 0.18 0.00 93 1010.9
20260906060103 21 349 0.0 3.2 0.00 0.18 0.00 92 1010.8
20260906055604 21 17 0.0 3.2 0.00 0.18 0.00 92 1010.7
20260906055104 21 321 0.0 3.2 0.00 0.18 0.00 92 1010.7
20260906054103 22 62 0.0 4.8 0.00 0.18 0.00 92 1010.7
20260906053604 22 63 0.0 3.2 0.00 0.18 0.00 92 1010.7
20260906053103 22 29 1.6 4.8 0.00 0.18 0.00 91 1010.7
20260906052603 22 85 1.6 14.5 0.00 0.18 0.00 91 1010.6
20260906052104 22 72 1.6 4.8 0.00 0.18 0.00 91 1010.6
20260906051103 22 53 1.6 4.8 0.00 0.18 0.00 91 1010.6
20260906045104 22 96 3.2 12.9 0.00 0.18 0.18 91 1010.5
20260906044603 22 4 3.2 12.9 0.00 0.18 0.18 91 1010.4
20260906044103 22 336 3.2 4.8 0.00 0.18 0.18 91 1010.3
20260906043604 22 55 8.0 14.5 0.00 0.18 0.18 91 1010.4
20260906043103 22 51 3.2 12.9 0.00 0.18 0.18 91 1010.5
20260906042604 22 82 3.2 22.5 0.00 0.18 0.18 91 1010.4
20260906042103 22 59 3.2 19.3 0.00 0.18 0.18 91 1010.4
20260906041603 22 65 3.2 14.5 0.00 0.18 0.18 91 1010.3
20260906041104 22 50 4.8 14.5 0.00 0.18 0.18 91 1010.3
20260906040603 22 63 1.6 12.9 0.00 0.18 0.18 91 1010.4
20260906035103 22 41 11.3 14.5 0.00 0.18 0.18 91 1010.3
20260906034604 22 9 4.8 19.3 0.00 0.18 0.18 90 1010.2
20260906034104 22 59 8.0 9.7 0.00 0.18 0.18 90 1010.2
20260906033603 22 349 8.0 14.5 0.00 0.18 0.18 90 1010.2
20260906032604 22 73 8.0 14.5 0.00 0.18 0.18 90 1010.2
20260906032103 22 77 3.2 12.9 0.00 0.18 0.18 89 1010.1
20260906031104 22 17 4.8 19.3 0.00 0.18 0.18 89 1010.2
20260906030603 22 71 4.8 14.5 0.00 0.18 0.18 89 1010.2
20260906025604 22 29 9.7 19.3 0.00 0.18 0.18 88 1010.3
20260906025104 23 27 14.5 27.4 0.00 0.18 0.18 88 1010.3
20260906024603 23 33 16.1 24.1 0.00 0.18 0.18 88 1010.3
20260906024104 23 344 8.0 14.5 0.00 0.18 0.18 87 1010.3
20260906023103 23 17 8.0 22.5 0.00 0.18 0.18 87 1010.2
20260906022604 23 41 14.5 22.5 0.00 0.18 0.18 86 1009.9
20260906022104 23 63 9.7 24.1 0.00 0.18 0.18 86 1009.9
20260906021604 23 42 6.4 14.5 0.00 0.18 0.18 86 1009.9
20260906021103 23 41 4.8 14.5 0.00 0.18 0.18 86 1009.8
20260906020603 23 59 19.3 27.4 0.00 0.18 0.18 85 1009.8
20260906020104 24 344 20.9 27.4 0.00 0.18 0.18 85 1009.9
20260906015603 24 338 14.5 27.4 0.00 0.18 0.18 85 1009.8
20260906015104 24 18 19.3 22.5 0.00 0.18 0.18 85 1009.7
20260906014103 25 69 8.0 22.5 0.00 0.18 0.18 84 1009.6
20260906013604 25 356 11.3 27.4 0.00 0.18 0.18 84 1009.4
20260906012603 25 40 22.5 24.1 0.00 0.18 0.18 83 1009.1
20260906012103 25 0 8.0 27.4 0.00 0.18 0.18 83 1009.1
20260906011604 26 8 14.5 22.5 0.00 0.18 0.18 83 1009.0
20260906011104 26 17 8.0 19.3 0.00 0.18 0.18 82 1008.9
20260906010603 26 37 8.0 19.3 0.00 0.18 0.18 82 1008.9
20260906010103 26 109 4.8 19.3 0.00 0.18 0.18 81 1008.9
20260906005603 26 134 8.0 22.5 0.00 0.18 0.18 80 1008.9
20260906005103 26 64 9.7 22.5 0.00 0.18 0.18 80 1008.9
20260906004604 27 329 8.0 22.5 0.00 0.18 0.18 79 1008.7
20260906003603 27 341 11.3 12.9 0.00 0.18 0.18 78 1008.7
20260906003103 27 355 14.5 27.4 0.00 0.18 0.18 77 1008.7
20260906002103 27 87 6.4 14.5 0.00 0.18 0.18 77 1008.6
20260906001603 27 3 12.9 19.3 0.00 0.18 0.18 77 1008.6
20260906001104 28 69 3.2 22.5 0.00 0.18 0.18 76 1008.4
20260905235603 28 76 8.0 19.3 0.00 0.18 0.18 76 1008.6
20260905235104 28 71 3.2 14.5 0.00 0.18 0.18 76 1008.6
20260905234603 28 10 8.0 12.9 0.00 0.18 0.18 75 1008.6
20260905234103 28 34 9.7 19.3 0.00 0.18 0.18 75 1008.4
20260905233604 29 21 4.8 14.5 0.00 0.18 0.18 75 1008.4
20260905233103 29 13 16.1 19.3 0.00 0.18 0.18 75 1008.3
20260905232604 29 36 9.7 22.5 0.00 0.18 0.18 75 1008.2
20260905232104 30 1 17.7 22.5 0.00 0.18 0.18 74 1008.0
20260905231604 30 46 20.9 27.4 0.00 0.18 0.18 74 1008.0
20260905231103 30 321 17.7 27.4 0.00 0.18 0.18 74 1008.0
20260905230103 30 57 17.7 22.5 0.00 0.18 0.18 73 1008.0
20260905225603 31 357 14.5 24.1 0.00 0.18 0.18 73 1007.8
20260905225104 31 21 14.5 27.4 0.00 0.18 0.18 74 1007.8
20260905224603 31 335 8.0 32.2 0.00 0.18 0.18 74 1007.6
20260905224103 31 16 11.3 19.3 0.00 0.18 0.18 74 1007.5
20260905223604 31 18 6.4 24.1 0.00 0.18 0.18 73 1007.5
20260905222603 32 27 9.7 19.3 0.00 0.18 0.18 73 1007.4
20260905222104 32 354 1.6 27.4 0.00 0.18 0.18 73 1007.4
20260905221603 32 351 0.0 0.0 0.00 0.18 0.18 72 1007.4
20260905221104 32 1 0.0 0.0 0.00 0.18 0.18 71 1007.4
20260905220604 32 18 0.0 0.0 0.00 0.18 0.18 70 1007.3
20260905220104 32 34 0.0 0.0 0.00 0.18 0.18 69 1007.2
20260905215604 32 24 0.0 0.0 0.00 0.18 0.18 68 1007.2
20260905215103 32 145 0.0 0.0 0.00 0.18 0.18 68 1007.2
20260905214604 32 26 0.0 0.0 0.00 0.18 0.18 70 1007.2
20260905213603 32 21 0.0 0.0 0.00 0.18 0.18 70 1007.1
20260905213104 32 349 0.0 0.0 0.00 0.18 0.18 70 1007.1
20260905212603 32 42 0.0 0.0 0.00 0.18 0.18 70 1007.1
20260905211603 32 65 0.0 0.0 0.00 0.18 0.18 69 1007.2
20260905211103 33 355 0.0 0.0 0.00 0.18 0.18 69 1007.2
20260905210604 33 21 0.0 0.0 0.00 0.18 0.18 68 1007.1
20260905210103 33 40 0.0 0.0 0.00 0.18 0.18 68 1007.2
20260905205603 33 61 0.0 0.0 0.00 0.18 0.18 68 1007.3
20260905205103 33 37 0.0 0.0 0.00 0.18 0.18 69 1007.3
20260905204603 33 19 0.0 0.0 0.00 0.18 0.18 69 1007.4
20260905204104 33 3 0.0 0.0 0.00 0.18 0.18 68 1007.4
20260905203603 33 25 0.0 0.0 0.00 0.18 0.18 68 1007.3
20260905203103 33 3 0.0 0.0 0.00 0.18 0.18 68 1007.3
20260905202604 33 59 0.0 0.0 0.00 0.18 0.18 68 1007.4
20260905202103 33 11 0.0 0.0 0.00 0.18 0.18 67 1007.4
20260905201604 33 346 0.0 0.0 0.00 0.18 0.18 65 1007.4
20260905201103 33 293 0.0 0.0 0.00 0.18 0.18 65 1007.4
20260905200603 33 23 0.0 0.0 0.00 0.18 0.18 65 1007.4
20260905200104 33 2 0.0 0.0 0.00 0.18 0.18 65 1007.5
20260905194603 34 351 0.0 0.0 0.00 0.18 0.18 64 1007.4
20260905194104 34 310 0.0 0.0 0.00 0.18 0.18 63 1007.6
20260905193604 34 92 0.0 0.0 0.00 0.18 0.18 66 1007.5
20260905193103 33 308 0.0 0.0 0.00 0.18 0.18 67 1007.7
20260905192604 33 40 0.0 0.0 0.00 0.18 0.18 67 1007.8
20260905192103 33 3 0.0 0.0 0.00 0.18 0.18 65 1007.8
20260905191604 33 26 0.0 0.0 0.00 0.18 0.18 67 1007.8
20260905191103 33 296 0.0 0.0 0.00 0.18 0.18 65 1007.9
20260905185603 33 328 0.0 0.0 0.00 0.18 0.18 70 1008.0
20260905185104 33 113 0.0 0.0 0.00 0.18 0.18 69 1008.0
20260905184603 33 309 0.0 0.0 0.00 0.18 0.18 68 1008.1
20260905184104 33 14 0.0 0.0 0.00 0.18 0.18 70 1008.3
20260905183604 33 260 0.0 0.0 0.00 0.18 0.18 70 1008.4
20260905183103 32 330 0.0 0.0 0.00 0.18 0.18 72 1008.4
20260905182603 32 42 0.0 0.0 0.00 0.18 0.18 71 1008.3
20260905182103 33 34 0.0 0.0 0.00 0.18 0.18 69 1008.3
20260905181604 33 41 0.0 0.0 0.00 0.18 0.18 65 1008.4
20260905181103 34 22 0.0 0.0 0.00 0.18 0.18 61 1008.4
20260905180603 35 59 0.0 0.0 0.00 0.18 0.18 63 1008.4
20260905180103 35 23 0.0 0.0 0.00 0.18 0.18 63 1008.3
20260905175603 35 292 0.0 0.0 0.00 0.18 0.18 64 1008.3
20260905175103 35 186 0.0 0.0 0.00 0.18 0.18 63 1008.3
20260905174103 35 157 0.0 0.0 0.00 0.18 0.18 68 1008.4
20260905173603 34 231 0.0 0.0 0.00 0.18 0.18 68 1008.4
20260905173103 34 232 0.0 0.0 0.00 0.18 0.18 68 1008.7
20260905172604 33 99 0.0 0.0 0.00 0.18 0.18 68 1008.8
20260905172104 33 77 0.0 0.0 0.00 0.18 0.18 70 1008.8
20260905170104 33 46 0.0 0.0 0.00 0.18 0.18 73 1008.9
20260905165104 33 173 0.0 0.0 0.00 0.18 0.18 72 1008.9
20260905164604 33 183 0.0 0.0 0.00 0.18 0.18 72 1009.0
20260905164103 33 208 0.0 0.0 0.00 0.18 0.18 72 1009.1
20260905161603 32 138 0.0 0.0 0.00 0.18 0.18 77 1009.0
20260905155604 31 138 0.0 0.0 0.00 0.18 0.18 80 1009.3
20260905155103 31 109 0.0 0.0 0.10 0.18 0.18 81 1009.4
20260905154604 31 113 0.0 0.0 0.18 0.18 0.18 82 1009.4
20260905154104 31 153 0.0 0.0 0.18 0.18 0.18 82 1009.3
20260905153104 30 120 0.0 0.0 0.18 0.18 0.18 87 1009.1
20260905152604 30 127 0.0 0.0 0.18 0.18 0.18 88 1009.0
20260905151104 29 111 0.0 0.0 0.18 0.18 0.18 87 1009.0
20260905150603 29 110 0.0 0.0 0.18 0.18 0.18 85 1009.0
20260905145604 30 95 0.0 0.0 0.18 0.18 0.18 81 1009.0
20260905144603 30 294 0.0 0.0 0.00 0.00 0.00 79 1009.0
20260905144103 30 294 0.0 0.0 0.00 0.00 0.00 78 1009.1
20260905143603 30 295 0.0 0.0 0.00 0.00 0.00 79 1009.1
20260905142604 30 322 0.0 0.0 0.00 0.00 0.00 79 1009.0
20260905142104 30 322 0.0 0.0 0.00 0.00 0.00 79 1009.0
20260905141603 30 31 0.0 0.0 0.00 0.00 0.00 78 1009.0
20260905141104 29 354 0.0 0.0 0.00 0.00 0.00 81 1009.0
20260905140604 29 31 0.0 0.0 0.00 0.00 0.00 84 1009.0
20260905140103 28 22 0.0 0.0 0.00 0.00 0.00 85 1008.9
20260905135603 28 27 0.0 0.0 0.00 0.00 0.00 85 1008.7
20260905135104 27 39 0.0 0.0 0.00 0.00 0.00 86 1008.8
20260905134603 27 9 0.0 0.0 0.00 0.00 0.00 87 1008.7
20260905134103 27 28 0.0 0.0 0.00 0.00 0.00 89 1008.7
20260905133103 27 41 0.0 0.0 0.00 0.00 0.00 90 1008.6
20260905132604 26 41 0.0 0.0 0.00 0.00 0.00 91 1008.7
20260905132103 26 46 0.0 0.0 0.00 0.00 0.00 91 1008.8
20260905131104 26 34 0.0 0.0 0.00 0.00 0.00 92 1008.9
20260905130603 26 34 0.0 0.0 0.00 0.00 0.00 93 1009.0
20260905130104 26 34 0.0 0.0 0.00 0.00 0.00 93 1008.9
20260905125603 25 30 0.0 0.0 0.00 0.00 0.00 94 1008.9
20260905125104 25 30 0.0 0.0 0.00 0.00 0.00 95 1008.8
20260905124603 25 30 0.0 0.0 0.00 0.00 0.00 95 1008.8
20260905124103 25 30 0.0 0.0 0.00 0.00 0.00 95 1008.9
20260905123103 25 30 0.0 0.0 0.00 0.00 0.00 96 1008.8
20260905122603 25 30 0.0 0.0 0.00 0.00 0.00 96 1008.8
20260905121103 24 30 0.0 0.0 0.00 0.00 0.00 96 1008.8
20260905120604 24 30 0.0 0.0 0.00 0.00 0.00 96 1008.8
20260905115603 23 30 0.0 0.0 0.00 0.00 0.00 95 1008.7
20260905115104 23 30 0.0 0.0 0.00 0.00 0.00 95 1008.7
20260905114603 23 30 0.0 0.0 0.00 0.00 0.00 95 1008.7
20260905114103 23 30 0.0 0.0 0.00 0.00 0.00 95 1008.6
20260905113603 23 30 0.0 0.0 0.00 0.00 0.00 95 1008.6
20260905113103 23 30 0.0 0.0 0.00 0.00 0.00 95 1008.6
20260905112104 23 30 0.0 0.0 0.00 0.00 0.00 95 1008.6
20260905111603 23 30 0.0 0.0 0.00 0.00 0.00 95 1008.6
20260905111103 23 30 0.0 0.0 0.00 0.00 0.00 95 1008.6
20260905110603 23 30 0.0 0.0 0.00 0.00 0.00 95 1008.6
20260905110104 24 30 0.0 0.0 0.00 0.00 0.00 95 1008.5